User: anonymous   Login
Location: Mt. Bigelow
(32.4165°N, 110.7345°W)
Time: 03:47:27
(UTC-07:00)
Language:

N. Korean satellite - Orbit

View from above orbital plane
View from above orbital plane
View from above satellite
View from above satellite

Ground track
Ground track

The orbit data is extracted from the following two-line orbital elements,

1 39026U 12072A   19080.91047615 +.00001555 +00000-0 +59101-4 0  9999
2 39026 097.2119 086.9485 0039933 058.3719 302.1407 15.27549084347984
Epoch (UTC): 21 March 2019 21:51:05
Eccentricity: 0.0039933
inclination: 97.2119°
perigee height: 456 km
apogee height: 510 km
right ascension of ascending node: 86.9485°
argument of perigee: 58.3719°
revolutions per day: 15.27549084
mean anomaly at epoch: 302.1407°
orbit number at epoch: 34798

The dashed part of the orbit path shows where the satellite is in the earth's shadow,  

DLR